This demonstration page uses our WeatherBlox Daily Observations layout. Learn more.

Left ArrowRight Arrow

Hourly Observations for May 4, 2016

Temp ( °F °C ) Dew Point ( °F °C ) Humidity (%) Winds ( mph kmh ) Pressure ( in mb ) Visibility ( mi km ) Precip ( " mm )
12:51 am 00:51 Clear 65 18.3 25 -3.9 22 22 SE 8 13 29.91 1013 10 16 0.00 0.00
1:51 am 01:51 Clear 66 18.9 25 -3.9 21 21 SE 6 9 29.91 1013 10 16 0.00 0.00
2:51 am 02:51 Clear 63 17.2 26 -3.3 25 25 ESE 9 15 29.93 1013 10 16 0.00 0.00
3:51 am 03:51 Clear 65 18.3 28 -2.2 25 25 E 10 17 29.93 1014 10 16 0.00 0.00
4:51 am 04:51 Clear 67 19.4 30 -1.1 25 25 E 12 19 29.93 1014 10 16 0.00 0.00
5:51 am 05:51 Sunny 67 19.4 30 -1.1 25 25 E 15 24 29.96 1015 10 16 0.00 0.00
6:51 am 06:51 Sunny 71 21.7 33 0.6 25 25 E 18 30 29.98 1015 10 16 0.00 0.00
7:51 am 07:51 Sunny 74 23.3 33 0.6 22 22 E 18 30 30.00 1016 10 16 0.00 0.00
8:51 am 08:51 Sunny 79 26.1 33 0.6 19 19 ESE 22 35 30.01 1016 10 16 0.00 0.00
9:51 am 09:51 Sunny 82 27.8 32 0 16 16 SE 20 31 29.98 1015 10 16 0.00 0.00
10:51 am 10:51 Sunny 85 29.4 31 -0.6 14 14 SE 14 22 29.96 1015 10 16 0.00 0.00
11:51 am 11:51 Sunny 87 30.6 30 -1.1 13 13 E 17 28 29.92 1013 10 16 0.00 0.00
12:51 pm 12:51 Sunny 90 32.2 28 -2.2 11 11 SE 16 26 29.89 1012 10 16 0.00 0.00
1:51 pm 13:51 Sunny 92 33.3 26 -3.3 9 9 ESE 15 24 29.85 1011 10 16 0.00 0.00
2:51 pm 14:51 Sunny 91 32.8 26 -3.3 9 9 SE 12 19 29.82 1010 10 16 0.00 0.00
3:51 pm 15:51 Sunny 92 33.3 26 -3.3 9 9 E 15 24 29.78 1009 10 16 0.00 0.00
4:51 pm 16:51 Sunny 91 32.8 26 -3.3 9 9 E 10 17 29.77 1008 10 16 0.00 0.00
5:51 pm 17:51 Sunny 90 32.2 26 -3.3 10 10 SE 15 24 29.76 1008 10 16 0.00 0.00
6:51 pm 18:51 Sunny 87 30.6 26 -3.3 11 11 ESE 15 24 29.75 1008 10 16 0.00 0.00
7:51 pm 19:51 Clear 82 27.8 26 -3.3 13 13 ESE 9 15 29.77 1008 10 16 0.00 0.00
8:51 pm 20:51 Clear 81 27.2 25 -3.9 13 13 SE 15 24 29.78 1009 10 16 0.00 0.00
9:51 pm 21:51 Clear 76 24.4 26 -3.3 16 16 S 13 20 29.81 1009 10 16 0.00 0.00
10:51 pm 22:51 Clear 75 23.9 26 -3.3 16 16 S 10 17 29.81 1010 10 16 0.00 0.00
11:51 pm 23:51 Clear 71 21.7 24 -4.4 17 17 ENE 7 11 29.83 1010 10 16 0.00 0.00

Powered by AerisWeather